User: anonymous   Login
Location: Unspecified
(0.0000°N, 0.0000°E)
Time: 04:35:03
(UTC+00:00)
Language:

TBA - TO BE ASSIGNED - Orbit

View from above orbital plane
View from above orbital plane
View from above satellite
View from above satellite

Ground track
Ground track

The orbit is defined by the following mean orbital elements,

1 67592U          26145.14883424 +.00000000 +00000-0 +48893-3 0 00009
2 67592  97.2849 210.3060 0000722 150.0053 210.1231 15.33461539    07
Epoch (UTC): 25 May 2026 03:34:19
Eccentricity: 0.0000722
inclination: 97.2849°
perigee height: 465 km
apogee height: 466 km
right ascension of ascending node: 210.3060°
argument of perigee: 150.0053°
revolutions per day: 15.33461539
mean anomaly at epoch: 210.1231°

The dashed part of the orbit path shows where the satellite is in the earth's shadow,  

DLR